Location: Lower Kingswood
(51.2667°N, 0.2167°W)
Time: 13:14:13
(UTC+00:00)

Cosmos 1833 - Pass Details

Date: 26 September 2023
Orbit: 833 x 865 km, 70.9° (Epoch: 28 November)

Event Time Altitude Azimuth Distance (km) Brightness Sun altitude
Exits shadow 04:50:06 - 218° (SW) 2,877 6.5 -10.6°
Reaches altitude 10° 04:51:13 10° 220° (SW) 2,455 6.2 -10.4°
Maximum altitude 04:56:49 68° 303° (WNW) 905 4.2 -9.5°
Drops below altitude 10° 05:02:26 10° 27° (NNE) 2,456 7.1 -8.7°
Sets 05:04:54 0° 30° (NNE) 3,393 8.0 -8.3°
